Kansas Department of Transportation
RWIS(Road and Runway Information System) Map and Weather Data





Station
Surface
Air
Wind
Site IDSensor TypeLocationTemperature (°F)Temperature (°F)Humidity (%)Speed (mi/h)Gusts (mi/h)DirectionTime
123014AtmosphericBull Creek 7526710SSWApr 20 2019 5:10PM
123014DeckBull Creek99     Apr 20 2019 5:10PM
123014DepartureBull Creek97     Apr 20 2019 5:10PM
123015AtmosphericLeavenworth 7533714SSWApr 20 2019 5:10PM
123015DeckLeavenworthUnavailable     Apr 20 2019 5:10PM
123015DepartureLeavenworth91     Apr 20 2019 5:10PM
123020AtmosphericMayetta      Apr 20 2019 11:45AM
123020RoadwayMayettaUnavailable     Apr 20 2019 5:10PM
123020DeckMayettaUnavailable     Apr 20 2019 5:10PM
505000AtmosphericKTA 1 7929710SApr 20 2019 5:00PM
505000ApproachKTA 1100     Apr 20 2019 5:00PM
505000DeckKTA 1102     Apr 20 2019 5:00PM
505001AtmosphericKTA 2 79361115SApr 20 2019 5:00PM
505001ApproachKTA 2102     Apr 20 2019 5:00PM
505001DeckKTA 2106     Apr 20 2019 5:00PM
505002AtmosphericKTA 3 8136610SApr 20 2019 5:00PM
505002ApproachKTA 3106     Apr 20 2019 5:00PM
505002DeckKTA 3100     Apr 20 2019 5:00PM
505003AtmosphericKTA 4 7925916NApr 20 2019 5:00PM
505003ApproachKTA 4100     Apr 20 2019 5:00PM
505003DeckKTA 497     Apr 20 2019 5:00PM
505004AtmosphericKTA 5 79991216ESEApr 20 2019 5:00PM
505004RoadwayKTA 5102     Apr 20 2019 5:00PM
505004RoadwayKTA 5102     Apr 20 2019 5:00PM
505005AtmosphericKTA 6 7925911SApr 20 2019 5:00PM
505005Approach KTA 6106     Apr 20 2019 5:00PM
505005DeckKTA 699     Apr 20 2019 5:00PM
505006AtmosphericKTA 7 7937612SWApr 20 2019 5:00PM
505006ApproachKTA 7Unavailable     Apr 20 2019 5:00PM
505006DeckKTA 7Unavailable     Apr 20 2019 5:00PM
505007AtmosphericKTA 8 7735611SSWApr 20 2019 5:00PM
505007ApproachKTA 8100     Apr 20 2019 5:00PM
505007DeckKTA 897     Apr 20 2019 5:00PM
505008AtmosphericKTA 9 771049SWApr 20 2019 5:00PM
505008ApproachKTA 9102     Apr 20 2019 5:00PM
505008DeckKTA 997     Apr 20 2019 5:00PM
505009AtmosphericKTA 10 813300NApr 20 2019 5:00PM
505009ApproachKTA 1095     Apr 20 2019 5:00PM
505009DeckKTA 1097     Apr 20 2019 5:00PM
505010AtmosphericWebb 7945914SEApr 20 2019 5:10PM
505010DeckWebb99     Apr 20 2019 5:10PM
505010NullWebb100     Apr 20 2019 5:10PM
540000AtmosphericBlue Rapids 8132714SSWApr 20 2019 5:10PM
540000DeckBlue Rapids100     Apr 20 2019 5:10PM
540000DepartureBlue Rapids106     Apr 20 2019 5:10PM
540001AtmosphericSabetha 8129714SApr 20 2019 5:10PM
540001ApproachSabetha108     Apr 20 2019 5:10PM
540001DeckSabetha106     Apr 20 2019 5:10PM
540002AtmosphericWestgate 7924814SEApr 20 2019 5:10PM
540002DeckWestgate99     Apr 20 2019 5:10PM
540002DepartureWestgate97     Apr 20 2019 5:10PM
540003AtmosphericEmporia 79301116SSWApr 20 2019 5:10PM
540003ApproachEmporia102     Apr 20 2019 5:10PM
540003DeckEmporia100     Apr 20 2019 5:10PM
540005AtmosphericLawrence 7534410SSEApr 20 2019 5:10PM
540005ApproachLawrenceUnavailable     Apr 20 2019 5:10PM
540005DeckLawrenceUnavailable     Apr 20 2019 5:10PM
540006AtmosphericTroy 79351014SApr 20 2019 5:10PM
540006DeckTroy      Apr 20 2019 5:10PM
540006DepartureTroy      Apr 20 2019 5:10PM
540007AtmosphericManhattan 822657SApr 20 2019 5:10PM
540007DepartureManhattan106     Apr 20 2019 5:10PM
540007DeckManhattan109     Apr 20 2019 5:10PM
541001AtmosphericSyracuse 8816612SSWApr 20 2019 5:10PM
541001Out of Service for WinterSyracuse115     Apr 20 2019 5:10PM
541001DeckSyracuse108     Apr 20 2019 5:10PM
541002AtmosphericLiberal 88171117SApr 20 2019 5:10PM
541002ApproachLiberalUnavailable     Apr 20 2019 5:10PM
541002DeckLiberalUnavailable     Apr 20 2019 5:10PM
541003AtmosphericFord 86201216SSEApr 20 2019 5:10PM
541003DeckFord109     Apr 20 2019 5:10PM
541003DepartureFord106     Apr 20 2019 5:10PM
541005AtmosphericNess 86221316SSEApr 20 2019 5:10PM
541005DeckNess109     Apr 20 2019 5:10PM
541005DepartureNess111     Apr 20 2019 5:10PM
543000AtmosphericJunction City 8425610NNEApr 20 2019 5:10PM
543000ApproachJunction City104     Apr 20 2019 5:10PM
543000DeckJunction City106     Apr 20 2019 5:10PM
543002AtmosphericMcPherson 793500SApr 20 2019 5:10PM
543002ApproachMcPherson97     Apr 20 2019 5:10PM
543002DeckMcPherson100     Apr 20 2019 5:10PM
543003AtmosphericSalina 82211016NApr 20 2019 5:10PM
543003DepartureSalina100     Apr 20 2019 5:10PM
543003RoadwaySalinaUnavailable     Apr 20 2019 5:10PM
543004AtmosphericConcordia 82261117SApr 20 2019 5:10PM
543004ApproachConcordiaUnavailable     Apr 20 2019 5:10PM
543004DeckConcordia104     Apr 20 2019 5:10PM
543005AtmosphericPeabody 792600WNWApr 20 2019 5:10PM
543005ApproachPeabody108     Apr 20 2019 5:10PM
543005DeckPeabodyUnavailable     Apr 20 2019 5:10PM
560000AtmosphericEdson 8416814SSEApr 20 2019 5:10PM
560000RoadwayEdson111     Apr 20 2019 5:10PM
560000RoadwayEdson108     Apr 20 2019 5:10PM
560002AtmosphericAtwood 8416919SSEApr 20 2019 5:10PM
560002ApproachAtwood106     Apr 20 2019 5:10PM
560002DeckAtwoodUnavailable     Apr 20 2019 5:10PM
560003AtmosphericJennings 881647SApr 20 2019 5:10PM
560003ApproachJennings120     Apr 20 2019 5:10PM
560003DeckJennings109     Apr 20 2019 5:10PM
560003DeckJennings109     Apr 20 2019 5:10PM
560006AtmosphericBow Creek(Stockton) 8810912SSWApr 20 2019 5:10PM
560006ApproachBow Creek(Stockton)111     Apr 20 2019 5:10PM
560006DeckBow Creek(Stockton)108     Apr 20 2019 5:10PM
560007AtmosphericLebanon 7918713SApr 20 2019 5:10PM
560007ApproachLebanon117     Apr 20 2019 5:10PM
560007DeckLebanon111     Apr 20 2019 5:10PM
572000AtmosphericGreat Bend 84331417SApr 20 2019 5:10PM
572000ApproachGreat Bend109     Apr 20 2019 5:10PM
572000DeckGreat Bend108     Apr 20 2019 5:10PM
572001AtmosphericPratt 841019SSEApr 20 2019 5:10PM
572001ApproachPratt115     Apr 20 2019 5:10PM
572001DeckPratt109     Apr 20 2019 5:10PM
572002AtmosphericAnthony 8140913SSEApr 20 2019 5:10PM
572002ApproachAnthony109     Apr 20 2019 5:10PM
572002DeckAnthony104     Apr 20 2019 5:10PM
573000AtmosphericEureka 7927616SSWApr 20 2019 5:10PM
573000DeckEureka108     Apr 20 2019 5:10PM
573000DepartureEureka100     Apr 20 2019 5:10PM
573001AtmosphericGarnett 753246SSWApr 20 2019 5:10PM
573001ApproachGarnett108     Apr 20 2019 5:10PM
573001DeckGarnett104     Apr 20 2019 5:10PM
573002AtmosphericCaney 811948ESEApr 20 2019 5:10PM
573002RoadwayCaney104     Apr 20 2019 5:10PM
573003AtmosphericChetopa 733536SEApr 20 2019 5:10PM
573003DeckChetopa108     Apr 20 2019 5:10PM
573003DeckChetopa108     Apr 20 2019 5:10PM
573003DepartureChetopa113     Apr 20 2019 5:10PM
573004AtmosphericChanute 7534711SSWApr 20 2019 5:10PM
573004ApproachChanute102     Apr 20 2019 5:10PM
573004DeckChanute102     Apr 20 2019 5:10PM